Location: Silverdale
(47.6506°N, 122.6941°W)
Time: 20:08:24
(UTC+00:00)

Vanguard 2 - Pass Details

Date: 06 October 2022
Orbit: 553 x 2933 km, 32.9° (Epoch: 30 November)

Event Time Altitude Azimuth Distance (km) Brightness Sun altitude
Rises 04:01:19 0° 268° (W) 6,595 13.4 -24.0°
Reaches altitude 10° 04:13:17 10° 233° (SW) 5,757 12.3 -25.9°
Maximum altitude 04:14:38 10° 228° (SW) 5,737 12.2 -26.1°
Drops below altitude 10° 04:15:58 10° 224° (SW) 5,733 12.2 -26.3°
Sets 04:27:45 0° 188° (S) 6,368 12.0 -28.1°
